GW4684 Weather Reports


time (UTC)temp
F
wind
direction
speed
knots
gust
knots
rain 1hr
in
rain 24hr
in
rain mn
in
humidity
%
barometer
mb
20260504012503 58 195 1.7 3.5 0.00 0.00 0.00 35 999.9
20260504012006 59 195 0.0 6.1 0.00 0.00 0.00 35 999.9
20260504011508 59 190 0.9 7.0 0.00 0.01 0.00 34 1000.1
20260504011004 59 209 0.9 7.0 0.00 0.01 0.00 34 1000.2
20260504010505 60 184 1.7 5.2 0.00 0.01 0.00 34 1000.3
20260504010009 60 198 0.9 5.2 0.00 0.01 0.00 33 1000.3
20260504005504 60 212 0.9 4.3 0.00 0.01 0.00 33 1000.5
20260504005005 61 244 1.7 7.8 0.00 0.01 0.00 32 1000.6
20260504004509 61 215 1.7 7.8 0.00 0.01 0.00 32 1000.7
20260504004008 61 222 2.6 5.2 0.00 0.01 0.00 32 1000.8
20260504003507 62 231 1.7 5.2 0.00 0.01 0.00 31 1000.9
20260504003012 62 242 2.6 9.6 0.00 0.01 0.00 31 1001.0
20260504002503 62 230 3.5 13.9 0.00 0.01 0.00 29 1001.1
20260504002007 62 217 2.6 13.9 0.00 0.01 0.00 30 1001.2
20260504001509 62 229 5.2 13.9 0.00 0.01 0.00 29 1001.3
20260504001008 62 223 3.5 12.2 0.00 0.01 0.00 29 1001.4
20260504000504 62 270 6.1 12.2 0.00 0.01 0.00 28 1001.5
20260504000035 63 252 6.1 12.2 0.00 0.01 0.00 29 1001.6
20260503235506 63 272 3.5 13.0 0.00 0.01 0.00 29 1001.8
20260503235008 63 224 5.2 13.0 0.00 0.01 0.00 28 1001.9
20260503234512 63 265 7.0 12.2 0.00 0.01 0.00 28 1002.0
20260503234007 64 244 5.2 13.9 0.00 0.01 0.00 28 1002.1
20260503233507 64 202 5.2 17.4 0.00 0.01 0.00 28 1002.1
20260503233013 63 275 8.7 17.4 0.00 0.01 0.00 28 1002.3
20260503232507 63 267 9.6 16.5 0.00 0.01 0.00 28 1002.3
20260503232003 63 271 8.7 16.5 0.00 0.01 0.00 28 1002.4
20260503231515 64 232 7.0 14.8 0.00 0.01 0.00 28 1002.4
20260503231008 65 256 7.8 17.4 0.00 0.01 0.00 27 1002.5
20260503230506 65 238 7.0 17.4 0.00 0.01 0.00 27 1002.6
20260503230013 65 302 6.1 14.8 0.00 0.01 0.00 27 1002.6
20260503225509 64 294 7.0 14.8 0.00 0.01 0.00 27 1002.6
20260503225007 64 281 7.0 13.9 0.00 0.01 0.00 30 1002.6
20260503224514 63 239 4.3 13.0 0.00 0.01 0.00 30 1002.8
20260503224009 63 297 6.1 14.8 0.00 0.01 0.00 29 1002.8
20260503223504 63 279 6.1 14.8 0.00 0.01 0.00 29 1002.8
20260503223016 63 287 7.8 13.9 0.00 0.01 0.00 28 1002.9
20260503222507 64 222 5.2 13.0 0.00 0.01 0.00 29 1002.9
20260503222008 64 306 3.5 17.4 0.00 0.01 0.00 28 1003.0
20260503221514 64 241 11.3 17.4 0.00 0.01 0.00 29 1003.0
20260503221009 64 331 5.2 15.6 0.00 0.01 0.00 29 1003.2
20260503220507 63 254 5.2 10.4 0.00 0.01 0.00 30 1003.3
20260503220019 63 295 4.3 10.4 0.00 0.01 0.00 29 1003.3
20260503215512 63 288 5.2 14.8 0.00 0.01 0.00 28 1003.4
20260503215005 64 294 6.1 14.8 0.00 0.01 0.00 28 1003.3
20260503214504 64 287 7.8 14.8 0.00 0.01 0.00 29 1003.5
20260503214007 63 304 5.2 13.9 0.00 0.01 0.00 28 1003.4
20260503213514 63 284 7.0 15.6 0.00 0.01 0.00 28 1003.6
20260503213004 63 304 7.0 15.6 0.00 0.01 0.00 29 1003.6
20260503212504 63 293 8.7 15.6 0.00 0.01 0.00 27 1003.5
20260503212007 63 306 5.2 13.9 0.00 0.01 0.00 28 1003.6
20260503211505 63 221 8.7 15.6 0.00 0.01 0.00 29 1003.7
20260503211003 63 311 6.1 15.6 0.00 0.01 0.00 28 1003.7
20260503210511 63 260 5.2 16.5 0.00 0.01 0.00 28 1003.7
20260503210003 63 261 7.0 16.5 0.00 0.01 0.00 28 1003.9
20260503205507 63 288 7.8 13.9 0.00 0.01 0.00 28 1003.8
20260503205008 63 301 8.7 15.6 0.00 0.01 0.00 28 1003.9
20260503204503 63 238 8.7 15.6 0.00 0.01 0.00 28 1004.0
20260503204005 64 315 7.8 15.6 0.00 0.01 0.00 28 1004.2
20260503203509 63 303 7.8 13.0 0.00 0.01 0.00 29 1004.0
20260503203008 63 245 6.1 12.2 0.00 0.01 0.00 30 1004.0
20260503202506 63 249 6.1 18.2 0.00 0.01 0.00 31 1004.3
20260503202003 63 267 7.8 18.2 0.00 0.01 0.00 30 1004.4
20260503201507 62 295 7.8 17.4 0.00 0.01 0.00 29 1004.3
20260503201007 62 346 9.6 17.4 0.00 0.01 0.00 29 1004.6
20260503200503 62 252 8.7 15.6 0.00 0.01 0.00 29 1004.4
20260503200008 62 275 9.6 14.8 0.00 0.01 0.00 29 1004.5
20260503195509 62 274 5.2 16.5 0.00 0.01 0.00 30 1004.5
20260503195001 62 331 7.0 17.4 0.00 0.01 0.00 30 1004.6
20260503194513 62 292 8.7 17.4 0.00 0.01 0.00 29 1004.7
20260503194009 62 328 10.4 17.4 0.00 0.01 0.00 29 1004.7
20260503193505 62 296 6.1 16.5 0.00 0.01 0.00 31 1004.8
20260503193011 62 331 8.7 16.5 0.00 0.01 0.00 30 1004.9
20260503192507 61 268 7.8 14.8 0.00 0.01 0.00 31 1004.9
20260503192003 62 306 8.7 15.6 0.00 0.01 0.00 30 1005.1
20260503191512 62 333 8.7 15.6 0.00 0.01 0.00 30 1005.2
20260503191009 62 322 7.0 19.1 0.00 0.01 0.00 29 1005.2
20260503190502 62 297 6.1 19.1 0.00 0.01 0.00 31 1005.3
20260503190013 62 277 7.8 15.6 0.00 0.01 0.00 29 1005.3
20260503185507 62 306 7.8 14.8 0.00 0.01 0.00 31 1005.5
20260503185002 61 253 5.2 18.2 0.00 0.01 0.00 31 1005.5
20260503184514 61 313 8.7 18.2 0.00 0.01 0.00 30 1005.6
20260503184007 60 325 7.8 15.6 0.00 0.01 0.00 31 1005.7
20260503183504 61 301 5.2 15.6 0.00 0.01 0.00 31 1005.7
20260503183015 61 301 9.6 15.6 0.00 0.01 0.00 31 1005.8
20260503182510 60 281 4.3 13.0 0.00 0.01 0.00 33 1005.8
20260503182003 60 342 7.8 19.1 0.00 0.01 0.00 30 1005.9
20260503181517 60 276 6.1 19.1 0.00 0.01 0.00 32 1006.0
20260503181007 60 290 8.7 17.4 0.00 0.01 0.00 30 1006.0
20260503180505 60 345 7.8 17.4 0.00 0.01 0.00 30 1006.2
20260503180026 60 269 10.4 17.4 0.00 0.01 0.00 30 1006.1
20260503175510 60 300 7.8 13.9 0.00 0.01 0.00 31 1006.0
20260503175003 59 261 6.1 13.9 0.00 0.01 0.00 32 1006.0
20260503174520 59 311 7.0 16.5 0.00 0.01 0.00 32 1006.0
20260503174012 59 324 7.8 16.5 0.00 0.01 0.00 31 1006.0
20260503173506 58 313 9.6 16.5 0.00 0.01 0.00 30 1006.1
20260503173037 58 332 8.7 15.6 0.00 0.01 0.00 32 1006.3
20260503172510 58 333 9.6 15.6 0.00 0.01 0.00 32 1006.5
20260503172003 58 313 7.8 20.9 0.00 0.01 0.00 34 1006.4
20260503171533 58 254 9.6 20.9 0.00 0.01 0.00 32 1006.5
20260503171010 57 318 10.4 20.0 0.00 0.01 0.00 33 1006.6
20260503170506 57 324 11.3 20.0 0.00 0.01 0.00 32 1006.7
20260503151006 52 304 7.0 13.9 0.00 0.01 0.00 41 1006.8
20260503150509 52 317 6.1 13.9 0.00 0.01 0.00 42 1006.7
20260503131006 45 9 8.7 13.0 0.00 0.01 0.00 72 1006.6
20260503130509 44 325 7.8 13.9 0.00 0.01 0.00 74 1006.5
20260503110508 42 288 2.6 7.8 0.00 0.01 0.00 91 1005.5
20260503090508 39 326 0.0 0.0 0.00 0.01 0.00 92 1006.0
20260503081518 40 9 0.0 0.0 0.00 0.01 0.00 91 1005.9
20260503081008 40 9 0.0 0.0 0.00 0.01 0.00 91 1005.9
20260503080508 40 9 0.0 0.0 0.00 0.01 0.00 91 1006.0
20260503072512 42 114 0.0 0.0 0.00 0.01 0.00 88 1006.1
20260503072010 43 114 0.0 0.0 0.00 0.01 0.00 88 1006.1
20260503071517 43 114 0.0 0.0 0.00 0.01 0.00 88 1006.2
20260503071007 43 114 0.0 0.0 0.00 0.01 0.00 88 1006.3
20260503070507 44 114 0.0 0.0 0.00 0.01 0.00 88 1006.2
20260503055007 47 114 0.0 0.0 0.00 0.01 0.00 85 1006.9
20260503054508 47 114 0.0 0.0 0.00 0.01 0.00 85 1006.9
20260503054003 47 114 0.0 0.0 0.00 0.01 0.00 85 1006.9
20260503053506 47 114 0.0 0.0 0.00 0.01 0.00 84 1007.0
20260503053007 47 114 0.0 0.9 0.00 0.01 0.00 85 1007.0
20260503052505 47 114 0.0 0.9 0.00 0.01 0.00 84 1007.1
20260503052009 47 114 0.0 0.0 0.00 0.01 0.00 85 1007.0
20260503051504 47 114 0.0 0.0 0.00 0.01 0.00 84 1007.0
20260503051003 47 114 0.0 0.0 0.00 0.01 0.00 84 1007.0
20260503050508 47 114 0.0 0.0 0.00 0.01 0.00 84 1007.1
20260503050003 47 114 0.0 0.9 0.00 0.01 0.00 84 1007.1
20260503045503 47 114 0.0 1.7 0.00 0.01 0.01 84 1007.1
20260503045007 47 115 0.0 1.7 0.00 0.01 0.01 84 1007.2
20260503044505 48 114 0.0 1.7 0.00 0.01 0.01 84 1007.2
20260503044006 48 98 0.9 1.7 0.00 0.01 0.01 84 1007.1
20260503043510 48 125 0.0 1.7 0.00 0.01 0.01 84 1007.1
20260503043006 48 125 0.0 1.7 0.00 0.01 0.01 84 1007.2
20260503042506 48 125 0.9 1.7 0.00 0.01 0.01 84 1007.3
20260503042011 48 130 0.9 2.6 0.00 0.01 0.01 84 1007.2
20260503041506 48 94 0.9 2.6 0.00 0.01 0.01 84 1007.2
20260503041006 48 127 0.0 3.5 0.00 0.01 0.01 84 1007.2
20260503040507 48 123 0.9 3.5 0.00 0.01 0.01 84 1007.3
20260503040004 48 94 0.9 2.6 0.00 0.01 0.01 84 1007.3
20260503035505 48 108 0.9 2.6 0.00 0.01 0.01 84 1007.4
20260503035009 48 96 1.7 2.6 0.00 0.01 0.01 83 1007.4
20260503034505 48 98 0.0 2.6 0.00 0.01 0.01 83 1007.4
20260503034010 48 119 0.0 2.6 0.00 0.01 0.01 84 1007.5
20260503033507 49 134 0.9 2.6 0.00 0.01 0.01 84 1007.5
20260503033010 49 108 0.0 2.6 0.00 0.01 0.01 84 1007.6
20260503032506 49 126 0.0 2.6 0.00 0.01 0.01 84 1007.8
20260503032009 49 142 0.0 2.6 0.00 0.01 0.01 83 1007.8
20260503031508 49 111 0.0 1.7 0.00 0.01 0.01 83 1007.9
20260503031009 49 130 0.0 0.0 0.00 0.01 0.01 83 1007.9
20260503030507 49 93 0.0 1.7 0.00 0.01 0.01 83 1008.0
20260503030010 49 93 0.0 2.6 0.00 0.01 0.01 83 1007.9
20260503025505 49 114 0.0 3.5 0.00 0.01 0.01 83 1008.0
20260503025008 49 98 1.7 3.5 0.00 0.01 0.01 83 1008.1
20260503024507 49 92 1.7 3.5 0.00 0.01 0.01 83 1008.3
20260503024007 49 98 1.7 2.6 0.00 0.01 0.01 84 1008.4
20260503023512 49 138 0.9 2.6 0.00 0.01 0.01 84 1008.6
20260503023030 50 124 0.0 2.6 0.00 0.01 0.01 84 1008.5
20260503022507 50 101 0.9 2.6 0.00 0.01 0.01 84 1008.5
20260503022011 50 288 0.0 0.0 0.00 0.01 0.01 84 1008.6
20260503021512 50 288 0.0 0.0 0.01 0.01 0.01 82 1008.6
20260503021008 50 288 0.0 0.0 0.01 0.01 0.01 82 1008.8
20260503020508 50 288 0.0 0.0 0.01 0.01 0.01 81 1008.8
20260503020015 50 288 0.0 0.0 0.01 0.01 0.01 81 1008.7
20260503015508 50 288 0.0 0.0 0.01 0.01 0.01 81 1008.7
20260503015009 50 288 0.0 0.0 0.01 0.01 0.01 80 1008.8
20260503014514 50 288 0.0 0.0 0.01 0.01 0.01 79 1008.7
20260503014009 51 288 0.0 0.0 0.01 0.01 0.01 79 1008.6
20260503013503 51 288 0.0 0.0 0.01 0.01 0.01 78 1008.7
20260503013014 51 288 0.0 0.0 0.01 0.01 0.01 77 1008.8